User: anonymous   Login
Location: Berkeley
(37.8716°N, 122.2727°W)
Time: 15:06:30
(UTC-08:00)
Language:

CAS-4B - Orbit

View from above orbital plane
View from above orbital plane
View from above satellite
View from above satellite

Ground track
Ground track

The orbit data is extracted from the following two-line orbital elements,

1 42759U 17034B   19315.75752273 -.00000003  00000-0  13344-4 0  9992
2 42759  43.0157 148.5010 0010311  89.0120 332.2095 15.09677161132917
Epoch (UTC): 11 November 2019 18:10:49
Eccentricity: 0.0010311
inclination: 43.0157°
perigee height: 530 km
apogee height: 544 km
right ascension of ascending node: 148.5010°
argument of perigee: 89.0120°
revolutions per day: 15.09677161
mean anomaly at epoch: 332.2095°
orbit number at epoch: 13291

The dashed part of the orbit path shows where the satellite is in the earth's shadow,  

DLR